[[{"header":{"parameterUnit":"m.s-1","parameterCategory":1,"la1":30.2991,"la2":30.254,"lo1":-89.0895,"lo2":-89.0444,"dy":0.0017,"dx":0.0017,"nx":28,"ny":28,"refTime":"2023-09-16T21:00:00:Z","depth":0,"parameterNumber":2,"parameterNumberName":"U-component_of_WINDS"},"data":[0,0,0,0,0,0,0,0,0,0,0,0,0,0,0,0,0,0,0,0,0,0,0,0,0,0,0,0,0,0,0,0,0,0,0,0,0,0,0,0,0,0,0,0,0,0,0,0,0,0,0,0,0,0,0,0,0,0,1.4362,1.4363,0,1.4393,1.4393,1.4393,1.4338,1.4336,1.4334,1.4332,1.4363,1.4366,1.4368,0,0,0,0,0,0,0,0,0,0,0,0,0,1.4255,1.4257,1.4362,1.4363,1.4363,1.4392,1.4393,1.4393,1.4338,1.4336,1.4333,1.4331,1.4363,1.4366,1.4369,0,0,0,0,0,0,0,0,0,0,0,0,0,1.4295,1.4258,1.4362,1.4339,1.4337,1.4392,1.4393,1.4393,1.4338,1.4336,1.4333,1.433,1.4362,1.4365,1.4369,1.4449,0,0,1.4381,1.4382,0,0,0,0,0,0,0,0,1.4293,1.4299,1.4342,1.4341,1.4339,1.4358,1.4366,1.4412,1.4339,1.4338,1.4332,1.4329,1.4364,1.4367,1.4379,1.445,1.4451,1.4381,1.4383,1.4385,1.4386,0,0,0,0,0,0,0,1.429,1.4297,1.4374,1.4343,1.4341,1.4326,1.4329,1.4375,1.4366,1.4338,1.4334,1.4338,1.4363,1.4376,1.438,1.4452,1.4381,1.4384,1.4387,1.4388,1.4587,1.4589,0,0,0,0,0,0,1.429,1.4295,1.4373,1.4375,1.4308,1.4331,1.4334,1.4355,1.4366,1.4364,1.434,1.4335,1.437,1.4375,1.438,1.4472,1.4385,1.4389,1.4391,1.4584,1.4587,1.459,0,0,0,0,0,0,1.4288,1.4298,1.4372,1.4334,1.4343,1.4335,1.436,1.4357,1.437,1.4368,1.4366,1.4356,1.4368,1.4375,1.4431,1.4473,1.439,1.4394,1.458,1.4585,1.4589,1.4658,0,0,0,0,0,0,1.4285,1.4297,1.4328,1.4335,1.4345,1.4423,1.4362,1.436,1.4377,1.437,1.4381,1.438,1.4367,1.4426,1.4435,1.4477,1.4397,1.4576,1.4582,1.4587,1.4652,1.4664,1.4675,0,0,0,0,0,1.4282,1.4347,1.433,1.434,1.4383,1.4426,1.4431,1.4414,1.438,1.4411,1.4409,1.438,1.4467,1.4432,1.4442,1.4485,1.4574,1.4581,1.4587,1.4647,1.4662,1.4675,0,0,0,0,0,0,1.4345,1.4348,1.4329,1.4398,1.4412,1.4416,1.4454,1.4431,1.4455,1.4448,1.4426,1.4429,1.4489,1.4493,1.4454,1.4561,1.4514,1.4523,1.4557,1.4571,1.4582,1.458,1.44,0,0,0,0,0,1.4367,1.4402,1.4402,1.4463,1.4471,1.4462,1.448,1.4465,1.4479,1.4484,1.4487,1.4501,1.4531,1.4551,1.4579,1.4652,1.4653,1.4687,1.4698,1.4708,1.4715,1.4753,1.4767,1.4612,1.4612,1.4612,0,0,1.4414,1.4419,1.4442,1.4476,1.4485,1.4521,1.4467,1.4508,1.4533,1.449,1.4543,1.4545,1.4559,1.4624,1.4653,1.4629,1.4758,1.4716,1.4724,1.4726,1.4761,1.4776,1.4789,1.4617,1.4616,1.4615,0,0,1.4515,1.4524,1.4574,1.4584,1.4598,1.4591,1.4603,1.4611,1.461,1.4663,1.463,1.4661,1.4714,1.4725,1.4737,1.4841,1.4815,1.485,1.491,1.4946,1.4958,1.4969,1.5004,1.5018,1.4858,1.4859,1.4859,0,1.4571,1.4623,1.4604,1.4646,1.4661,1.4623,1.4674,1.4684,1.4707,1.4718,1.4691,1.4755,1.4762,1.4828,1.4853,1.4865,1.4877,1.4849,1.4958,1.4969,1.4978,1.5012,1.5026,1.4863,1.4862,1.4862,1.4861,0,1.469,1.4727,1.4766,1.4788,1.4808,1.4854,1.484,1.4863,1.4846,1.4841,1.4894,1.4901,1.4929,1.4943,1.4928,1.5007,1.4991,1.4962,1.4914,1.4998,1.5029,1.5041,1.4869,1.4867,1.4866,1.4865,0,0,1.4833,1.4842,1.4857,1.4865,1.4877,1.4905,1.4949,1.4975,1.4994,1.5011,1.5046,1.5091,1.5063,1.5077,1.5063,1.5095,1.5174,1.5061,1.5061,1.5081,1.5259,1.528,1.5295,1.5157,1.5159,1.5161,1.5257,0,1.4933,1.5008,1.4991,1.5065,1.5098,1.5061,1.5099,1.511,1.5107,1.5134,1.513,1.5161,1.5123,1.5131,1.5161,1.5158,1.5209,1.5151,1.5189,1.519,1.5185,1.5312,1.5335,1.5425,1.5269,1.5271,1.5273,0,1.506,1.508,1.5157,1.5161,1.5175,1.5209,1.5231,1.5257,1.5268,1.5263,1.5278,1.5257,1.5299,1.5251,1.5309,1.5269,1.5284,1.5284,1.5287,1.5289,1.5236,1.5316,1.5453,1.5467,1.5292,1.5291,1.5289,0,1.5154,1.5201,1.5253,1.5261,1.5268,1.5293,1.5297,1.5305,1.5322,1.5341,1.5351,1.5375,1.5388,1.5406,1.5391,1.5358,1.5451,1.5402,1.5447,1.5447,1.5467,1.5466,1.5608,1.5479,1.5478,1.5478,1.5478,0,1.5267,1.5315,1.5295,1.5327,1.5379,1.5358,1.5411,1.5411,1.5418,1.5448,1.5419,1.5448,1.5427,1.5454,1.5443,1.5491,1.5497,1.5494,1.549,1.5496,1.5496,1.5504,1.5497,1.5482,1.5481,1.548,1.548,0,1.5382,1.537,1.5424,1.5425,1.5427,1.5465,1.5466,1.5495,1.5489,1.5528,1.5536,1.5526,1.5556,1.5543,1.5575,1.5567,1.5629,1.5617,1.5625,1.5622,1.5667,1.5662,1.5818,1.5836,1.5696,1.5698,1.5699,0,1.5454,1.549,1.5495,1.5513,1.5519,1.5548,1.5564,1.5545,1.5563,1.5577,1.5604,1.5631,1.5652,1.5702,1.5697,1.5721,1.5709,1.5762,1.5713,1.5717,1.5708,1.5706,1.5709,1.5772,1.5773,1.5775,1.5776,0,1.5582,1.5574,1.5598,1.5621,1.564,1.5657,1.5671,1.5687,1.5668,1.5689,1.5719,1.5736,1.5767,1.5794,1.5815,1.5819,1.5794,1.5791,1.5803,1.5809,1.5811,1.5809,1.5651,1.5788,1.5787,1.5786,1.5785,1.5785,1.5677,1.5706,1.5714,1.5741,1.5749,1.5763,1.5789,1.5786,1.5811,1.5835,1.5822,1.5856,1.5865,1.589,1.5896,1.5923,1.5902,1.5919,1.5923,1.5927,1.5932,1.5808,1.5927,1.5926,1.5926,1.5926,1.5925,0,1.5802,1.5805,1.5831,1.585,1.5872,1.5846,1.586,1.5879,1.591,1.592,1.594,1.5974,1.6,1.5997,1.602,1.6042,1.6031,1.6048,1.6046,1.6047,1.595,1.5938,1.6056,1.6056,1.6056,1.6056,1.6056,1.6056,1.587,1.5918,1.5911,1.5962,1.5964,1.5998,1.6007,1.6019,1.6026,1.6065,1.6086,1.6084,1.6088,1.6111,1.6133,1.6132,1.6141,1.6163,1.6157,1.6067,1.6054,1.6041,1.6029,1.6165,1.6166,1.6251,1.6252,1.6252]},{"header":{"parameterUnit":"m.s-1","parameterCategory":1,"la1":30.2991,"la2":30.254,"lo1":-89.0895,"lo2":-89.0444,"dy":0.0017,"dx":0.0017,"nx":28,"ny":28,"refTime":"2023-09-16T21:00:00:Z","depth":0,"parameterNumber":3,"parameterNumberName":"V-component_of_WINDS"},"data":[0,0,0,0,0,0,0,0,0,0,0,0,0,0,0,0,0,0,0,0,0,0,0,0,0,0,0,0,0,0,0,0,0,0,0,0,0,0,0,0,0,0,0,0,0,0,0,0,0,0,0,0,0,0,0,0,0,0,3.4624,3.4624,0,3.4631,3.4631,3.4631,3.4542,3.4539,3.4537,3.4534,3.454,3.4542,3.4545,0,0,0,0,0,0,0,0,0,0,0,0,0,3.4532,3.4534,3.4624,3.4624,3.4625,3.4631,3.4631,3.4631,3.4542,3.4539,3.4536,3.4533,3.4539,3.4542,3.4545,0,0,0,0,0,0,0,0,0,0,0,0,0,3.4559,3.4535,3.4624,3.4581,3.4577,3.4631,3.4631,3.4631,3.4543,3.4539,3.4535,3.4532,3.4538,3.4542,3.4545,3.4641,0,0,3.4556,3.4558,0,0,0,0,0,0,0,0,3.4558,3.4562,3.4587,3.4584,3.458,3.4582,3.46,3.4634,3.4544,3.4556,3.4534,3.453,3.4557,3.4559,3.4568,3.4641,3.4641,3.4557,3.4559,3.4561,3.4562,0,0,0,0,0,0,0,3.4556,3.4562,3.4627,3.4588,3.4583,3.456,3.456,3.4606,3.4577,3.4554,3.4548,3.455,3.4554,3.4565,3.4567,3.4641,3.4557,3.456,3.4562,3.4564,3.4791,3.4795,0,0,0,0,0,0,3.456,3.4561,3.4627,3.4627,3.456,3.4565,3.4565,3.4585,3.4576,3.4571,3.4553,3.4546,3.456,3.4563,3.4567,3.4677,3.4561,3.4564,3.4566,3.4787,3.4792,3.4796,0,0,0,0,0,0,3.4559,3.4567,3.4626,3.4592,3.4598,3.457,3.4594,3.4587,3.4597,3.4575,3.4569,3.457,3.4557,3.4562,3.4623,3.4676,3.4566,3.4569,3.4783,3.4789,3.4794,3.4899,0,0,0,0,0,0,3.4556,3.4567,3.4604,3.4594,3.46,3.4683,3.4597,3.459,3.4604,3.4594,3.4589,3.4584,3.4555,3.4618,3.4626,3.4679,3.4572,3.4778,3.4785,3.4792,3.489,3.4907,3.4922,0,0,0,0,0,3.4553,3.4633,3.4606,3.4614,3.4646,3.4686,3.469,3.4655,3.4609,3.4645,3.463,3.4584,3.4669,3.4625,3.4634,3.4688,3.4774,3.4783,3.4792,3.4883,3.4904,3.4921,0,0,0,0,0,0,3.465,3.4631,3.4601,3.468,3.4685,3.4671,3.4716,3.4678,3.4697,3.4687,3.4642,3.4642,3.471,3.4705,3.4656,3.4779,3.4713,3.4724,3.478,3.4799,3.4815,3.4814,3.4575,0,0,0,0,0,3.468,3.4716,3.4697,3.4768,3.4773,3.4744,3.476,3.4733,3.4737,3.4738,3.4728,3.4733,3.4761,3.478,3.4804,3.4889,3.4886,3.4931,3.4947,3.496,3.497,3.5013,3.5032,3.4825,3.4825,3.4825,0,0,3.4744,3.4738,3.4763,3.4787,3.4788,3.4825,3.4747,3.4789,3.4815,3.4745,3.4801,3.4794,3.4796,3.487,3.4901,3.4868,3.5026,3.4971,3.4981,3.4984,3.5024,3.5043,3.5061,3.4831,3.483,3.4829,0,0,3.4878,3.4877,3.4936,3.4938,3.4941,3.4921,3.4935,3.4926,3.4919,3.4975,3.4922,3.4953,3.5001,3.5005,3.5013,3.5147,3.5105,3.5156,3.5238,3.5281,3.5297,3.5311,3.5358,3.5376,3.5166,3.5166,3.5166,0,3.4956,3.501,3.4971,3.5016,3.5028,3.4966,3.5024,3.5028,3.5039,3.5048,3.501,3.5069,3.5066,3.5139,3.5171,3.518,3.5194,3.5156,3.5298,3.5312,3.5325,3.5369,3.5387,3.5172,3.5171,3.5171,3.517,0,3.5105,3.5143,3.519,3.5201,3.5218,3.527,3.5238,3.526,3.523,3.5214,3.5271,3.5266,3.5287,3.5302,3.5274,3.5371,3.5349,3.5306,3.5239,3.5351,3.5392,3.5408,3.5181,3.5179,3.5177,3.5175,0,0,3.5301,3.5289,3.5307,3.531,3.5308,3.5336,3.5384,3.5405,3.5424,3.5433,3.5472,3.5514,3.5473,3.5482,3.5454,3.5491,3.5596,3.5443,3.5442,3.5471,3.5701,3.5733,3.5754,3.5569,3.5572,3.5574,3.57,0,3.5431,3.5513,3.5478,3.5563,3.5597,3.5537,3.5579,3.5582,3.5568,3.5593,3.5577,3.5608,3.5552,3.5557,3.5592,3.5576,3.5642,3.5567,3.5604,3.5605,3.5604,3.5775,3.581,3.5929,3.5716,3.5719,3.5721,0,3.5593,3.5608,3.5697,3.5686,3.5699,3.5738,3.5753,3.5779,3.578,3.5766,3.5777,3.5739,3.5785,3.5719,3.578,3.573,3.5743,3.5738,3.5741,3.5743,3.567,3.5781,3.5966,3.5984,3.5745,3.5743,3.5742,0,3.5726,3.5768,3.5826,3.5831,3.5821,3.5849,3.5846,3.5844,3.5858,3.5871,3.588,3.5898,3.5909,3.5924,3.5892,3.5847,3.5958,3.5889,3.5948,3.5949,3.5974,3.5973,3.6163,3.5983,3.5983,3.5983,3.5982,0,3.5874,3.593,3.5885,3.5921,3.5982,3.5941,3.6002,3.5992,3.599,3.6022,3.5972,3.6003,3.596,3.5987,3.5962,3.6016,3.6022,3.6012,3.6005,3.6016,3.6017,3.6024,3.6014,3.5987,3.5986,3.5985,3.5985,0,3.6033,3.6005,3.6064,3.6049,3.6047,3.6092,3.6079,3.6111,3.6093,3.6134,3.6141,3.6113,3.6141,3.6111,3.6138,3.6122,3.6195,3.6175,3.6194,3.6189,3.6249,3.6243,3.645,3.6475,3.628,3.6282,3.6283,0,3.6129,3.6171,3.616,3.6178,3.6178,3.6207,3.6221,3.6182,3.6198,3.6202,3.6233,3.6257,3.6275,3.6323,3.6305,3.6325,3.6305,3.6376,3.6308,3.6318,3.6305,3.6303,3.6307,3.639,3.6393,3.6395,3.6396,0,3.6302,3.6286,3.6308,3.6325,3.6343,3.6355,3.6362,3.638,3.6339,3.636,3.6388,3.6402,3.6428,3.6453,3.6467,3.6463,3.6423,3.6418,3.6432,3.6444,3.6453,3.6448,3.6232,3.6413,3.6411,3.641,3.6409,3.6409,3.6432,3.6466,3.6463,3.6489,3.649,3.6498,3.6527,3.6512,3.6535,3.6553,3.6529,3.6564,3.6562,3.6577,3.6578,3.6604,3.6574,3.6596,3.6601,3.6607,3.6615,3.6449,3.6607,3.6606,3.6606,3.6606,3.6605,0,3.6602,3.6597,3.6621,3.6633,3.6653,3.6612,3.6618,3.6638,3.6669,3.6671,3.6689,3.6721,3.6744,3.6727,3.6746,3.6771,3.6753,3.6777,3.6775,3.6774,3.6641,3.6627,3.6791,3.6791,3.6791,3.6791,3.6791,3.6791,3.6693,3.6747,3.673,3.6784,3.6778,3.6812,3.6819,3.6825,3.6826,3.6864,3.6883,3.6872,3.6866,3.6884,3.6904,3.6898,3.6907,3.6938,3.6926,3.6802,3.6784,3.6766,3.6752,3.6941,3.6941,3.7057,3.7058,3.7059]}]]